Location: Unspecified
(40.7945°N, 0.0000°E)
Time: 14:12:33
(UTC+00:00)

Courier 1B - Pass Details

Date: 27 January 2021
Orbit: 962 x 1209 km, 28.3° (Epoch: 24 February)

Event Time Altitude Azimuth Distance (km) Brightness Sun altitude
Rises 01:52:12 0° 256° (WSW) 3,685 - -59.1°
Reaches altitude 10° 01:55:31 10° 241° (WSW) 2,710 - -58.6°
Maximum altitude 02:00:16 22° 194° (SSW) 1,982 - -57.9°
Drops below altitude 10° 02:04:59 10° 146° (SE) 2,683 - -57.2°
Sets 02:08:15 0° 131° (SE) 3,638 - -56.7°
